Flag for Canada Weather past 2 weeks in Corner Brook, Newfoundland and Labrador, Canada

Now
48 °F

Scattered showers. Overcast.


Feels Like: 42 °F
Forecast: 40 / 46 °F
Wind: 17 mph from Southwest

Location: Deer Lake

Current Time: Oct 21, 2014 at 1:34:01 PM

Latest Report: Oct 21, 2014 at 12:30 PM


Visibility: 12 mi

Pressure: 29.98 "Hg

Humidity: 66%

Dew point: 37 °F

Location of Corner BrookLocation

Historic Weather in Corner Brook — Graph

°F

Corner Brook temperature yesterday

Maximum temperature yesterday: 64 °F (at 11:30 AM)
Minimum temperature yesterday: 43 °F (at 8:30 PM)
Average temperature yesterday: 50 °F

Past Weeks' High & Low Weather Summary

 TemperatureHumidityPressure
High66 °F (Oct 6, 1:30 PM)100% (Oct 7, 10:30 PM)30.33 "Hg (Oct 7, 10:30 PM)
Low28 °F (Oct 8, 4:30 AM)45% (Oct 7, 4:30 PM)29.02 "Hg (Oct 20, 11:30 AM)
Average50 °F84%29.91 "Hg
* Reported Oct 6 11:30 AM — Oct 21 11:30 AM, Corner Brook, Weather by CustomWeather, © 2014

Note: Actual official high and low records may vary slightly from our data, if they occured in-between our weather recording intervals... More about our weather records

Advertising

Corner Brook weather history for previous 24 hours

 ConditionsComfort  
Time TempWeatherWind HumidityBarometerVisibility
11:30 AM
Oct 21
46 °FOvercast.14 mph71%29.95 "Hg15 mi
10:30 AM46 °FOvercast.14 mph71%29.93 "Hg15 mi
9:30 AM45 °FScattered showers. Overcast.16 mph76%29.89 "Hg15 mi
8:30 AM45 °FScattered showers. Overcast.14 mph76%29.85 "Hg12 mi
7:30 AM45 °FOvercast.15 mph76%29.81 "Hg15 mi
6:30 AM45 °FSprinkles. Overcast.16 mph76%29.78 "Hg15 mi
5:30 AM45 °FSprinkles. Overcast.23 mph71%29.74 "Hg15 mi
4:30 AM45 °FSprinkles. Passing clouds.15 mph76%29.69 "Hg15 mi
3:30 AM45 °FSprinkles. Overcast.17 mph76%29.63 "Hg15 mi
2:30 AM43 °FSprinkles. Passing clouds.20 mph81%29.61 "Hg10 mi
1:30 AM43 °FSprinkles. Passing clouds.18 mph87%29.58 "Hg10 mi
12:30 AM43 °FSprinkles. Passing clouds.24 mph81%29.54 "Hg15 mi
11:30 PM
Oct 20
43 °FSprinkles. Overcast.18 mph87%29.52 "Hg10 mi
10:30 PM43 °FSprinkles. Overcast.20 mph87%29.50 "Hg10 mi
9:30 PM43 °FSprinkles. Overcast.23 mph87%29.49 "Hg15 mi
8:30 PM43 °FSprinkles. Overcast.21 mph81%29.46 "Hg10 mi
7:30 PM45 °FSprinkles. Passing clouds.23 mph76%29.43 "Hg12 mi
6:30 PM45 °FSprinkles. Partly sunny.22 mph76%29.41 "Hg12 mi
5:30 PM45 °FSprinkles. Partly sunny.23 mph76%29.39 "Hg12 mi
4:30 PM45 °FSprinkles. Partly sunny.20 mph87%29.35 "Hg12 mi
3:30 PM46 °FSprinkles. Overcast.26 mph82%29.31 "Hg12 mi
2:30 PM48 °FSprinkles. Overcast.26 mph76%29.26 "Hg12 mi
1:30 PM50 °FOvercast.23 mph82%29.20 "Hg15 mi
Weather by CustomWeather, © 2014

See weather overviewHow to use our weather pages